This demonstration page uses our WeatherBlox Daily Observations layout. Learn more.

Left ArrowRight Arrow

36.17497, -115.13722

Hourly Observations for January 4, 2021

Temp ( °F °C ) Dew Point ( °F °C ) Humidity (%) Winds ( mph kmh ) Pressure ( in mb ) Visibility ( mi km ) Precip ( " mm )
12:53 am 00:53 Clear 42 5.6 23 -5 47 47 WNW 5 7 30.22 1024 10 16 N/A
1:53 am 01:53 Clear 42 5.6 24 -4.4 49 49 NW 7 11 30.24 1024 10 16 N/A
2:53 am 02:53 Clear 43 6.1 24 -4.4 47 47 N N/A 30.21 1023 10 16 N/A
3:53 am 03:53 Partly Cloudy 41 5 22 -5.6 47 47 N N/A 30.20 1023 10 16 N/A
4:53 am 04:53 Clear 42 5.6 23 -5 47 47 N N/A 30.22 1023 10 16 N/A
5:53 am 05:53 Clear 41 5 24 -4.4 51 51 WNW 3 6 30.22 1024 10 16 N/A
6:53 am 06:53 Sunny 41 5 24 -4.4 51 51 NW 6 9 30.24 1024 10 16 N/A
7:53 am 07:53 Sunny 43 6.1 25 -3.9 49 49 VRB 3 6 30.26 1025 10 16 N/A
8:53 am 08:53 Sunny 48 8.9 25 -3.9 41 41 N N/A 30.26 1025 10 16 N/A
9:53 am 09:53 Sunny 51 10.6 24 -4.4 35 35 SE 3 6 30.24 1024 10 16 N/A
10:53 am 10:53 Sunny 54 12.2 24 -4.4 31 31 SE 7 11 30.20 1023 10 16 N/A
11:53 am 11:53 Sunny 57 13.9 23 -5 27 27 ESE 7 11 30.15 1021 10 16 N/A
12:53 pm 12:53 Sunny 58 14.4 23 -5 26 26 SE 7 11 30.11 1020 10 16 N/A
1:53 pm 13:53 Sunny 60 15.6 23 -5 24 24 E 9 15 30.07 1018 10 16 N/A
2:53 pm 14:53 Sunny 61 16.1 23 -5 23 23 E 3 6 30.07 1018 10 16 N/A
3:53 pm 15:53 Sunny 60 15.6 22 -5.6 23 23 ENE 5 7 30.07 1018 10 16 N/A
4:53 pm 16:53 Clear 58 14.4 24 -4.4 27 27 N 5 7 30.09 1019 10 16 N/A
5:53 pm 17:53 Clear 55 12.8 23 -5 29 29 ESE 3 6 30.11 1020 10 16 N/A
6:53 pm 18:53 Clear 52 11.1 23 -5 32 32 WNW 3 6 30.09 1019 10 16 N/A
7:53 pm 19:53 Clear 49 9.4 24 -4.4 38 38 NW 7 11 30.09 1019 10 16 N/A
8:53 pm 20:53 Clear 47 8.3 24 -4.4 41 41 WNW 5 7 30.07 1018 10 16 N/A
9:53 pm 21:53 Clear 47 8.3 25 -3.9 42 42 WNW 5 7 30.06 1018 10 16 N/A
10:53 pm 22:53 Clear 47 8.3 24 -4.4 41 41 WNW 5 7 30.06 1018 10 16 N/A
11:53 pm 23:53 Clear 44 6.7 24 -4.4 45 45 NNW 10 17 30.07 1018 10 16 N/A

Powered by AerisWeather